Location: *
(53.0867°S, 174.4518°W)
Time: 20:44:59
(UTC+00:00)

Daily predictions for brighter satellites

Satellite Brightness Start Highest point End
(mag) Time Altitude Azimuth Time Altitude Azimuth Time Altitude Azimuth
Terra 4.2 12:08:09 10° S 12:10:03 18° SSW 12:10:03 18° SSW
CZ-2D R/B 3.8 12:19:18 27° SSW 12:19:18 27° SSW 12:21:42 10° SSW
Cosmos 2237 Rocket 4.0 12:13:27 10° SW 12:15:36 24° SW 12:15:36 24° SW
Cosmos 2227 Rocket 3.9 12:25:59 25° ESE 12:25:59 25° ESE 12:28:54 10° SE
COSMOS 2455 4.2 12:39:05 32° SSW 12:39:20 32° SSW 12:44:45 10° SE
IDEFIX/ARIANE 42P 3.9 12:42:33 36° S 12:42:33 36° S 12:45:48 10° S
Cosmos 2219 4.3 12:55:31 40° ESE 12:55:31 40° ESE 12:59:25 10° SE
Cosmos 1943 4.5 13:04:20 10° SSW 13:09:41 38° SE 13:15:00 10° ENE
Resurs 1-4 Rocket 4.3 13:20:25 16° SW 13:20:25 16° SW 13:21:45 10° SW
ARIANE 5 R/B 3.4 13:22:54 47° SSE 13:22:54 47° SSE 13:26:54 10° S
ADEOS Rocket 4.2 13:19:51 10° SSE 13:24:49 31° E 13:25:47 29° ENE
SL-16 R/B 3.9 13:22:04 10° SW 13:24:13 24° SW 13:24:13 24° SW
ADEOS II 4.0 13:40:15 20° SW 13:40:15 20° SW 13:42:05 10° SSW
ATLAS CENTAUR R/B 3.6 13:38:34 21° S 13:38:34 21° S 13:41:02 10° SSE
Meteor 2-3 Rocket 4.0 13:38:14 66° ESE 13:38:14 66° ESE 13:43:36 10° SSE
USA 215 3.1 13:31:57 10° ESE 13:38:36 88° SSW 13:38:53 83° W
Cosmos 2297 Rocket 2.6 13:46:21 57° SSW 13:46:21 57° SSW 13:51:26 10° SSE
Timation 2 Rocket 3.9 13:45:45 77° ENE 13:45:45 77° ENE 13:51:59 10° SE
Timation 1 Rocket 4.3 13:52:16 75° SSW 13:52:16 75° SSW 13:58:06 10° SSE
ATLAS 2AS CENTAUR R/B 2.7 13:46:54 10° SW 13:53:43 81° SE 14:01:01 10° NE
FENGYUN 3A 4.2 13:53:09 39° ENE 13:54:56 57° ESE 14:00:21 10° S
Meteor 2-15 Rocket 4.5 13:50:37 10° S 13:56:50 78° ESE 13:57:52 62° NE
Spot 4 Rocket 4.3 13:56:48 65° E 13:57:06 67° ESE 14:02:19 10° SSW
Lacrosse 5 rocket 3.1 14:04:17 26° ESE 14:04:17 26° ESE 14:06:01 10° ESE
NOSS 3-3 (A) 4.4 14:01:09 60° WNW 14:02:43 79° SW 14:09:59 10° SE
NOSS 3-3 (C) 4.4 14:01:14 61° WNW 14:02:49 79° SW 14:10:04 10° SE
Cosmos 489 Rocket 4.4 14:04:44 67° WSW 14:04:58 68° WSW 14:11:20 10° SSE
SL-4 R/B 3.4 14:07:26 40° ENE 14:07:26 40° ENE 14:10:36 10° ENE
Cosmos 2151 4.4 14:07:44 33° SSW 14:07:44 33° SSW 14:10:21 10° S
Cosmos 2227 Rocket 2.5 14:07:47 56° SW 14:07:47 56° SW 14:13:20 10° SSE
CZ-2C R/B 2.5 14:11:22 66° S 14:11:22 66° S 14:15:29 10° SSW
MOZ.5/SAFIR/RUBIN 5/SL-8 4.0 14:09:00 10° SSE 14:13:09 67° S 14:13:09 67° S
ALOS 2.6 14:13:28 57° ENE 14:14:07 64° ESE 14:18:50 10° S
CZ-4B R/B 3.6 14:15:13 65° SW 14:15:13 65° SW 14:19:45 10° SSW
Cosmos 2082 3.5 14:14:58 81° WNW 14:15:11 83° WSW 14:20:58 10° SSE
IDEFIX/ARIANE 42P 4.5 14:23:21 17° SW 14:23:21 17° SW 14:24:59 10° SW
PAYLOAD A 4.0 14:21:21 77° W 14:21:21 77° W 14:26:41 10° SSW
Nadezhda 4 Rocket 3.9 14:21:28 64° NNW 14:22:28 81° W 14:28:48 10° S
UNK 4.1 14:19:02 10° SSE 14:23:43 58° E 14:24:16 54° NE
Cosmos 2263 Rocket 2.6 14:27:01 45° NNE 14:28:22 57° ENE 14:33:56 10° SE
Cosmos 1862 3.6 14:33:00 66° SE 14:33:00 66° SE 14:36:39 10° SSE
Cosmos 1766 Rocket 3.6 14:33:15 75° SSW 14:33:15 75° SSW 14:37:24 10° S
SL-16 R/B 2.7 14:26:38 10° SSE 14:32:55 68° ENE 14:35:46 34° N
Alouette 2 Rocket 3.9 14:30:20 10° SSW 14:33:11 53° S 14:33:11 53° S
Cosmos 2219 4.0 14:37:26 36° WSW 14:38:14 38° SW 14:43:36 10° SSE
Cosmos 1408 Rocket 3.9 14:39:52 51° NE 14:40:43 63° E 14:45:06 10° SSE
Meteor 2-19 Rocket 4.4 14:40:22 53° NW 14:41:46 71° WSW 14:47:57 10° S
Helios 1A 3.3 14:37:48 10° S 14:41:31 57° SW 14:41:31 57° SW
Meteor 2-6 Rocket 4.1 14:37:02 10° SSW 14:42:35 62° W 14:43:07 59° NW
CZ-2C R/B 3.7 14:44:34 39° SSW 14:44:34 39° SSW 14:47:02 10° SSW
Cosmos 1943 3.2 14:48:24 10° SW 14:53:58 54° WNW 14:59:31 10° N
Cosmos 2251 Rocket 3.5 14:56:00 42° NNW 14:57:51 81° ENE 15:03:12 10° SSE
Cosmos 1867 3.6 14:58:08 48° WNW 14:59:30 66° SW 15:04:55 10° SE
METEOR-M 4.0 14:56:55 19° N 15:00:54 72° WNW 15:06:21 10° SSW
ARIANE 5 R/B 4.0 15:03:13 21° WSW 15:03:13 21° WSW 15:05:37 10° SW
Cosmos 1484 Rocket 2.6 15:00:56 62° N 15:01:33 84° WNW 15:05:33 10° SSW
Cosmos 1092 Rocket 4.0 14:59:35 36° NNW 15:02:17 70° WSW 15:08:42 10° S
Cosmos 1603 3.8 14:57:15 10° SW 15:02:43 48° WNW 15:05:06 30° NNW
Okean 3 Rocket 4.1 15:10:13 42° W 15:10:30 43° WSW 15:14:56 10° S
ADEOS Rocket 3.0 15:05:13 10° S 15:10:41 54° WSW 15:12:45 36° WNW
S3M 4.2 15:06:50 10° S 15:13:17 75° ESE 15:19:44 10° NNE
Meteor 1-28 Rocket 3.1 15:09:45 10° SSE 15:13:34 84° ENE 15:14:41 44° N
H-2A R/B 4.0 15:10:59 10° NE 15:14:37 42° ESE 15:18:17 10° S
Cosmos 1844 Rocket 4.2 15:10:38 10° NNE 15:15:34 33° ENE 15:20:34 10° SE
Cosmos 614 Rocket 3.9 15:14:11 37° NW 15:16:15 77° WSW 15:21:31 10° SSE
Cosmos 1140 Rocket 4.1 15:12:40 16° N 15:16:42 55° ENE 15:21:54 10° SSE
ATLAS CENTAUR R/B 3.8 15:15:12 10° SW 15:17:53 16° S 15:20:28 10° SE
USA 215 3.5 15:14:56 10° ESE 15:21:28 65° S 15:26:14 20° W
Meteor 2-14 Rocket 4.4 15:21:10 16° NNW 15:26:15 81° WSW 15:32:32 10° S
Cosmos 1743 Rocket 3.5 15:24:09 23° NNW 15:26:57 86° WSW 15:31:31 10° S
Cosmos 407 Rocket 3.8 15:23:05 17° NNW 15:27:16 69° ENE 15:32:40 10° SSE
Cosmos 1515 3.8 15:23:36 10° S 15:27:29 80° ESE 15:31:20 10° NNE
SJ-6F 4.5 15:25:41 10° N 15:29:53 61° WNW 15:34:09 10° SSW
Cosmos 2297 Rocket 3.9 15:28:09 15° WSW 15:30:59 21° SSW 15:35:14 10° SSE
Cosmos 2228 Rocket 3.0 15:29:05 10° SSW 15:33:34 69° W 15:38:01 10° N
FENGYUN 3A 4.5 15:34:41 28° WNW 15:35:34 29° W 15:40:21 10° SSW
Meteor 2-21 4.5 15:32:21 15° NNW 15:37:37 69° WSW 15:43:54 10° S
Cosmos 1190 Rocket 4.4 15:32:44 10° N 15:37:54 63° ENE 15:43:12 10° SSE
PSLV R/B 4.2 15:40:13 28° NW 15:41:32 34° W 15:45:38 10° SSW
Lacrosse 5 rocket 1.8 15:39:52 26° WSW 15:41:36 46° S 15:45:13 10° ESE
CZ-4B R/B 3.6 15:39:02 10° NNE 15:42:45 89° ESE 15:46:38 10° SSW
RESURS DK-1 2.3 15:39:52 10° SW 15:44:07 84° WNW 15:48:19 10° NNE
ATLAS 2AS CENTAUR R/B 3.3 15:38:11 10° WSW 15:44:10 33° WNW 15:50:30 10° N
SL-4 R/B 2.8 15:42:59 27° W 15:45:11 44° NNW 15:49:48 10° NE
SL-24 R/B 4.0 15:41:57 10° SSE 15:45:48 68° E 15:49:30 10° N
MINOTAUR 4 R/B 4.0 15:42:25 10° SSE 15:46:05 77° WSW 15:48:38 19° NNW
Cosmos 2026 Rocket 4.4 15:42:53 21° NW 15:46:56 45° WSW 15:53:05 10° S
SJ-12 3.8 15:43:46 10° N 15:47:52 73° WNW 15:52:03 10° SSW
Meteor 2-16 Rocket 4.4 15:42:38 10° NNW 15:48:47 84° WSW 15:55:01 10° S
CZ-2C R/B 4.1 15:50:44 15° WSW 15:50:44 15° WSW 15:52:32 10° SW
Meteor 1-31 Rocket 2.6 15:48:01 10° N 15:51:53 78° WNW 15:55:47 10° SSW
ALOS 3.5 15:51:57 21° W 15:51:57 21° W 15:55:35 10° SW
Meteor 1-20 Rocket 4.2 15:46:48 10° N 15:52:22 87° ENE 15:58:07 10° SSE
CZ-4B R/B 4.1 15:48:04 10° NE 15:52:25 50° ESE 15:56:41 10° S
Cosmos 2227 Rocket 4.0 15:49:36 12° WSW 15:53:01 20° SSW 15:57:08 10° SSE
Meteor 2-21 Rocket 4.5 15:47:16 10° NNW 15:53:30 69° WSW 15:59:48 10° S
Meteor 1-18 Rocket 4.4 15:47:29 10° SSW 15:53:32 83° ESE 15:59:27 10° NNE
Cosmos 1553 Rocket 4.3 15:49:48 10° SSW 15:55:34 43° W 16:01:16 10° NNW
Okean 1 3.2 15:54:57 10° SSW 15:59:04 74° W 16:03:06 10° N
[s.n.49181] 4.1 15:56:55 10° SSW 15:59:40 41° SE 16:02:23 10° NE
[s.n.49180] 4.0 15:57:12 10° SSW 15:59:57 41° SE 16:02:41 10° NE
[s.n.49176] 4.0 15:57:29 10° SSW 16:00:13 42° SE 16:02:57 10° NE
[s.n.49178] 4.0 15:57:45 10° SSW 16:00:30 42° SE 16:03:15 10° NE
[s.n.49179] 4.0 15:58:02 10° SSW 16:00:47 42° SE 16:03:32 10° NE
[s.n.49177] 4.0 15:58:20 10° SSW 16:01:06 43° SE 16:03:50 10° NE
[s.n.49175] 4.0 15:58:36 10° SSW 16:01:22 43° SE 16:04:07 10° NE
[s.n.49172] 3.9 15:58:54 10° SSW 16:01:40 43° SE 16:04:25 10° NE
[s.n.49170] 3.9 15:59:11 10° SSW 16:01:57 44° SE 16:04:42 10° NE
[s.n.49174] 3.9 15:59:28 10° SSW 16:02:14 44° SE 16:04:59 10° NE
[s.n.49168] 3.9 16:00:02 10° SSW 16:02:48 45° SE 16:05:34 10° NE
[s.n.49171] 3.9 16:00:20 10° SSW 16:03:06 45° SE 16:05:52 10° NE
[s.n.49169] 3.8 16:00:39 10° SSW 16:03:26 45° SE 16:06:12 10° NE
[s.n.49164] 3.8 16:00:54 10° SSW 16:03:41 46° SE 16:06:27 10° NE
[s.n.49166] 3.8 16:01:13 10° SSW 16:04:00 46° SE 16:06:47 10° NE
[s.n.49167] 3.8 16:01:30 10° SSW 16:04:18 46° SE 16:07:04 10° NE
Meteor 1-27 Rocket 4.4 15:59:34 10° SSW 16:04:30 32° W 16:09:27 10° NNW
[s.n.49165] 3.8 16:01:47 10° SSW 16:04:35 47° SE 16:07:22 10° NE
[s.n.49162] 3.8 16:02:06 10° SSW 16:04:53 47° SE 16:07:40 10° NE
Cosmos 1500 3.5 16:01:02 10° N 16:04:55 71° E 16:08:52 10° SSE
[s.n.49163] 3.7 16:02:23 10° SSW 16:05:10 48° SE 16:07:57 10° NE
[s.n.49160] 3.7 16:02:40 10° SSW 16:05:28 48° SE 16:08:15 10° NE
Cosmos 1602 3.7 16:01:37 10° NNW 16:05:32 72° WSW 16:09:28 10° S
[s.n.49158] 3.7 16:02:58 10° SSW 16:05:46 48° SE 16:08:33 10° NE
[s.n.49161] 3.7 16:03:16 10° SSW 16:06:03 49° SE 16:08:51 10° NE
[s.n.49156] 3.7 16:03:33 10° SSW 16:06:22 49° SE 16:09:09 10° NE
[s.n.49159] 3.7 16:03:51 10° SSW 16:06:39 49° SE 16:09:27 10° NE
Cosmos 1844 4.2 16:01:11 10° NNW 16:06:48 61° ENE 16:12:23 10° SE
[s.n.49157] 3.6 16:04:09 10° SSW 16:06:58 50° SE 16:09:45 10° NE
YAOGAN 6 2.6 16:03:28 10° N 16:07:00 59° W 16:10:37 10° SSW
[s.n.49154] 3.6 16:04:27 10° SSW 16:07:16 50° SE 16:10:04 10° NE
[s.n.49152] 3.6 16:04:45 10° SSW 16:07:34 51° SE 16:10:22 10° NE
[s.n.49155] 3.6 16:05:03 10° SSW 16:07:53 51° SE 16:10:41 10° NE
[s.n.49153] 3.6 16:05:21 10° SSW 16:08:10 52° SE 16:10:58 10° NE
[s.n.49150] 3.5 16:05:39 10° SSW 16:08:28 52° SE 16:11:17 10° NE
[s.n.49151] 3.5 16:05:57 10° SSW 16:08:47 53° SE 16:11:36 10° NE
Cosmos 1707 Rocket 3.5 16:04:28 10° SSW 16:08:52 64° W 16:13:15 10° N
Cosmos 1862 Rocket 3.7 16:04:31 10° S 16:09:00 80° ESE 16:13:24 10° NNE
[s.n.49148] 3.5 16:06:16 10° SSW 16:09:05 53° SE 16:11:54 10° NE
DELTA 2 DEB (DPAF) 4.2 16:04:53 10° S 16:09:22 60° WSW 16:13:48 10° NNW
[s.n.49149] 3.5 16:06:34 10° SSW 16:09:23 53° SE 16:12:12 10° NE
[s.n.49145] 3.5 16:06:52 10° SSW 16:09:42 54° SE 16:12:31 10° NE
[s.n.49146] 3.5 16:07:11 10° SSW 16:10:01 54° SE 16:12:50 10° NE
[s.n.49144] 3.4 16:07:29 10° SSW 16:10:19 55° SE 16:13:09 10° NE
[s.n.49147] 3.4 16:07:47 10° SSW 16:10:38 55° SE 16:13:28 10° NE
[s.n.49143] 3.4 16:08:06 10° SSW 16:10:57 56° SE 16:13:46 10° NE
[s.n.49142] 3.4 16:08:24 10° SSW 16:11:15 56° SE 16:14:04 10° NE
[s.n.49140] 3.4 16:08:43 10° SSW 16:11:34 57° SE 16:14:24 10° NE
[s.n.49141] 3.3 16:09:02 10° SSW 16:11:53 57° SE 16:14:42 10° NE
[s.n.49138] 3.3 16:09:21 10° SSW 16:12:12 58° SE 16:15:02 10° NE
[s.n.49139] 3.3 16:09:39 10° SSW 16:12:30 58° SE 16:15:21 10° NE
Cosmos 2263 Rocket 3.0 16:08:42 17° WNW 16:12:36 37° SW 16:17:52 10° SSE
[s.n.49134] 3.3 16:09:58 10° SSW 16:12:49 59° SE 16:15:38 10° NE
[s.n.49137] 3.3 16:10:17 10° SSW 16:13:08 60° SE 16:15:59 10° NE
[s.n.49135] 3.3 16:10:35 10° SSW 16:13:27 60° SE 16:16:17 10° NE
[s.n.49136] 3.2 16:10:54 10° SSW 16:13:46 61° SE 16:16:37 10° NE
[s.n.49133] 3.2 16:11:14 10° SSW 16:14:06 61° SE 16:16:56 10° NE
[s.n.49131] 3.2 16:11:33 10° SSW 16:14:25 62° SE 16:17:15 10° NE
[s.n.49132] 3.2 16:11:52 10° SSW 16:14:44 62° SE 16:17:35 10° NE
SL-16 R/B 3.4 16:10:43 10° S 16:16:07 31° SW 16:20:52 13° WNW
Sich 1 3.1 16:12:45 10° NNW 16:17:07 58° WSW 16:21:31 10° S
Meteor 2-4 Rocket 3.9 16:13:58 10° SSW 16:20:02 88° WNW 16:26:02 10° N
MOS 1 Rocket 4.0 16:16:03 10° SSE 16:21:36 73° ENE 16:26:52 10° N
SJ-7 4.4 16:18:16 10° NNE 16:22:25 86° WNW 16:26:42 10° SSW
USA 305 3.9 16:18:18 10° NW 16:22:25 42° NNE 16:26:32 10° ESE
Cosmos 1805 Rocket 4.0 16:18:07 10° NW 16:22:26 43° WSW 16:26:47 10° S
Cosmos 1763 Rocket 3.5 16:18:21 10° SSW 16:23:39 66° WNW 16:28:56 10° NNE
Cosmos 1633 Rocket 3.2 16:19:20 10° N 16:23:46 85° E 16:28:14 10° SSE
Envisat 3.3 16:19:04 10° N 16:24:00 47° W 16:29:01 10° SSW
Cosmos 1340 Rocket 2.7 16:26:37 10° NNW 16:30:34 83° W 16:34:37 10° SSE
Cosmos 1655 Rocket 4.2 16:26:21 10° NNW 16:32:35 55° WSW 16:38:57 10° S
Cosmos 676 Rocket 4.1 16:30:35 10° NNW 16:35:54 78° WSW 16:41:21 10° SSE
USA 307 3.8 16:31:53 10° NW 16:36:02 45° NNE 16:40:11 10° ESE
ADEOS 4.0 16:31:24 10° N 16:36:23 42° W 16:41:26 10° SSW
ISS -0.6 16:36:06 10° NNE 16:36:49 10° NE 16:37:32 10° NE
CZ-4C R/B 3.8 16:34:03 10° S 16:38:22 50° WSW 16:42:32 10° NW
Cosmos 2315 Rocket 4.2 16:33:51 10° SSW 16:40:00 53° W 16:46:07 10° NNW
Cosmos 1607 3.9 16:35:09 10° NW 16:41:16 78° SW 16:47:31 10° SE
Okean O Rocket 3.8 16:39:33 10° NE 16:43:31 32° ESE 16:47:34 10° S
Cosmos 1666 2.7 16:43:57 10° NNW 16:47:52 75° WSW 16:51:50 10° S
H-2A R/B 3.9 16:45:51 10° NW 16:48:55 22° W 16:52:00 10° SW
USA 306 3.5 16:45:53 10° NW 16:50:08 55° NNE 16:54:24 10° ESE
Cosmos 2266 Rocket 4.3 16:44:50 10° NW 16:50:41 45° WSW 16:56:41 10° S
Cosmos 2242 Rocket 3.9 16:47:06 10° S 16:51:36 74° ESE 16:56:06 10° NNE
H-2A R/B 3.5 16:47:35 10° NE 16:52:39 44° ESE 16:57:39 10° S
Cosmos 1833 Rocket 2.8 16:47:10 10° SSW 16:52:56 89° ESE 16:58:38 10° NNE
CORIOLIS 4.4 16:49:27 10° NNE 16:54:54 84° ESE 17:00:26 10° SSW
USA 308 3.5 16:50:58 10° NW 16:55:13 55° NNE 16:59:28 10° ESE
